Find Starlink 30148

NORAD ID: 57617 Int'l Des: 2023-119 Owner: SPXS Country: US Constellation: starlink operational
LEOCIRCULAR

Live-Position

3D-Globus wird geladen...

Über Starlink 30148

Beschreibung wird geladen...

Nächste Überflüge

Passes for default location (London). Set your location on the main map for personalized predictions.

Höhenverlauf

Loading altitude history...

Zweizeiliger Elementsatz

1 57617U 23119R 26125.01118856 .00003785 00000-0 14698-3 0 9992
2 57617 43.0004 123.1992 0001222 281.1708 78.9006 15.27584273151708
Epoch: 5. Mai 2026 • Age: 26 hours

Aktueller Status

Höhe 489.3 km
Geschwindigkeit 7.62 km/s
Subsatellitenpunkt -27.39°S, 178.01°E
Startdatum 11. Aug. 2023
Alter 2.7 years
Typ internet

Technische Details

Klassifizierung Payload
Masse 730.00 kg
Trockenmasse 700.00 kg
Gesamtmasse 730.00 kg
Länge 0.30 m
Durchmesser 4.10 m
Spannweite 29.00 m
Form Box + pan
Hersteller SPXS
Bus-Typ Starlink V2M
Phasenstatus In Orbit
Besitzer/Staat SPXS/US

Most Searched